Regional Weather Roundup
Issued by NWS Sioux Falls, SD

Home | Current Version | Previous Version | Graphics & Text | Print | Product List | Glossary Off
Versions: 1 2 3 4 5 6 7 8 9 10 11 12 13 14 15 16 17 18 19 20 21 22 23 24 25 26 27 28 29 30 31 32 33 34 35 36 37 38 39 40 41 42 43 44 45 46 47 48 49 50

000
ASUS43 KFSD 061010
RWRFSD

WEATHER ROUNDUP FOR SE SOUTH DAKOTA/SW MINNESOTA/NW IOWA
NATIONAL WEATHER SERVICE SIOUX FALLS SD
400 AM CST SAT FEB 06 2016

NOTE: "FAIR" INDICATES FEW OR NO CLOUDS BELOW 12,000 FEET WITH NO
SIGNIFICANT WEATHER AND OR OBSTRUCTIONS TO VISIBILITY.


SDZ038>040-050-052>070-061100-
SOUTHEAST SOUTH DAKOTA

CITY           SKY/WX    TMP DP  RH WIND       PRES   REMARKS
BROOKINGS      CLOUDY    17  16  95 S7        30.10F WCI   8
CHAMBERLAIN    CLEAR     24  20  85 SW6       30.10F WCI  17
HURON          CLEAR     23  20  88 S9        30.08F WCI  13
MADISON        FAIR      21  21 100 SW10      30.11F WCI  10
MITCHELL       CLEAR     26  22  84 S10       30.14F WCI  16
SIOUX FALLS    MOCLDY    21  19  92 SW5       30.15F WCI  15
WINNER         FAIR      28  18  66 SW14      30.10F WCI  17
YANKTON        CLEAR     23  21  93 SW7       30.19F WCI  15
$$

MNZ071-072-080-081-089-090-097-098-061100-
SOUTHWEST MINNESOTA

CITY           SKY/WX    TMP DP  RH WIND       PRES   REMARKS
FAIRMONT       CLOUDY    25  19  80 SW10      30.16F WCI  15
JACKSON        FOG       27  23  86 SW9       30.15F VSB 1/2 WCI  17
LUVERNE        FOG       23  21  93 S3        30.17S VSB 1/4
MARSHALL         N/A    N/A N/A N/A MISG        N/A
MONTEVIDEO     CLOUDY    19  18  93 SW6       30.12F WCI  11
PIPESTONE        N/A     21  14  73 CALM      30.12F
REDWOOD FALLS  CLOUDY    14  12  92 SW7       30.13F WCI   4
TRACY          CLOUDY    22  21  95 SW14      30.12F WCI   9
WINDOM         SNOW      25  23  93 SW7       30.14S VSB 1/2 WCI  17
WORTHINGTON    CLOUDY    23  19  86 SW12      30.16S VSB 1/4 WCI  12
$$

IAZ001>003-012>014-020>022-031-032-NEZ013-014-SDZ071-061100-
NORTHWEST IOWA

CITY           SKY/WX    TMP DP  RH WIND       PRES   REMARKS
CHEROKEE       FOG       25  25 100 SW7       30.21F VSB 1/2 WCI  17
DENISON        CLOUDY    28  28 100 W6        30.21F FOG     WCI  22
ESTHERVILLE    FOG       23  22  96 SW13      30.17S VSB 1/2 WCI  11
LE MARS        FOG       21  21 100 S6        30.22F VSB<1/4 WCI  14
ORANGE CITY    SNOW      19  19 100 CALM      30.19S VSB<1/4
SHELDON        FOG       21  21 100 SW8       30.17F VSB<1/4 WCI  12
SIOUX CITY     HAZE      19  14  81 CALM      30.23F VSB 1/4
SPENCER        CLOUDY    21  18  88 W3        30.19S FOG
STORM LAKE     FOG       25  25 100 W12       30.20S VSB 1/4 WCI  14
$$

ABBREVIATIONS USED IN REMARKS
   TC - TEMPERATURE IN CELSIUS
  WCI - WIND CHILL INDEX
   HX - HEAT INDEX
  VSB - VISIBILITY




USA.gov is the U.S. government's official web portal to all federal, state and local government web resources and services.